[[{"header":{"parameterUnit":"m.s-1","parameterCategory":1,"la1":30.2991,"la2":30.254,"lo1":-89.0895,"lo2":-89.0444,"dy":0.0017,"dx":0.0017,"nx":28,"ny":28,"refTime":"2025-05-16T03:00:00:Z","depth":0,"parameterNumber":2,"parameterNumberName":"U-component_of_WINDS"},"data":[0,0,0,0,0,0,0,0,0,0,0,0,0,0,0,0,0,0,0,0,0,0,0,0,0,0,0,0,0,0,0,0,0,0,0,0,0,0,0,0,0,0,0,0,0,0,0,0,0,0,0,0,0,0,0,0,0,0,-0.1972,-0.1971,0,-0.1805,-0.1803,-0.1801,-0.1743,-0.1744,-0.1745,-0.1745,-0.1572,-0.1567,-0.1562,0,0,0,0,0,0,0,0,0,0,0,0,0,-0.2241,-0.2236,-0.1973,-0.197,-0.1968,-0.1805,-0.1803,-0.1801,-0.1743,-0.1744,-0.1745,-0.1745,-0.1574,-0.1567,-0.1561,0,0,0,0,0,0,0,0,0,0,0,0,0,-0.2104,-0.2235,-0.1973,-0.192,-0.1914,-0.1806,-0.1803,-0.18,-0.1743,-0.1744,-0.1745,-0.1746,-0.1576,-0.1568,-0.156,-0.1493,0,0,-0.1536,-0.1533,0,0,0,0,0,0,0,0,-0.2112,-0.2094,-0.193,-0.1923,-0.1916,-0.1796,-0.1834,-0.1697,-0.1743,-0.1808,-0.1745,-0.1746,-0.1646,-0.1632,-0.1598,-0.1484,-0.1477,-0.1536,-0.1531,-0.1528,-0.1525,0,0,0,0,0,0,0,-0.2121,-0.2101,-0.1906,-0.1928,-0.1919,-0.1904,-0.1886,-0.1808,-0.1723,-0.1802,-0.1797,-0.1779,-0.1642,-0.1606,-0.1594,-0.1474,-0.1536,-0.1529,-0.1524,-0.1521,-0.1297,-0.1295,0,0,0,0,0,0,-0.214,-0.2109,-0.1912,-0.1901,-0.2018,-0.1899,-0.1878,-0.1834,-0.1724,-0.1708,-0.1778,-0.1776,-0.1619,-0.1603,-0.1588,-0.1501,-0.1528,-0.152,-0.1516,-0.1298,-0.1296,-0.1295,0,0,0,0,0,0,-0.2146,-0.2123,-0.1918,-0.2004,-0.1977,-0.1893,-0.1843,-0.183,-0.1794,-0.1706,-0.169,-0.1757,-0.1619,-0.1599,-0.1517,-0.1494,-0.1517,-0.151,-0.1299,-0.1297,-0.1296,-0.1328,0,0,0,0,0,0,-0.2154,-0.2125,-0.2099,-0.2004,-0.1972,-0.1851,-0.1842,-0.1826,-0.1781,-0.1777,-0.1682,-0.1667,-0.1618,-0.1529,-0.1509,-0.1484,-0.1504,-0.1301,-0.1299,-0.1296,-0.1328,-0.1327,-0.1326,0,0,0,0,0,-0.2164,-0.2114,-0.2098,-0.2074,-0.1938,-0.185,-0.1832,-0.1777,-0.1779,-0.1752,-0.1695,-0.167,-0.15,-0.1521,-0.1498,-0.147,-0.1302,-0.1299,-0.1296,-0.1329,-0.1327,-0.1326,0,0,0,0,0,0,-0.2208,-0.2101,-0.2081,-0.2,-0.1934,-0.184,-0.1804,-0.1777,-0.1709,-0.1709,-0.1644,-0.1623,-0.1546,-0.15,-0.1525,-0.1399,-0.14,-0.1392,-0.1432,-0.143,-0.1429,-0.1441,-0.1497,0,0,0,0,0,-0.2209,-0.2147,-0.2056,-0.1993,-0.1961,-0.1888,-0.1848,-0.1812,-0.1741,-0.1713,-0.165,-0.1582,-0.1513,-0.1469,-0.1401,-0.1322,-0.13,-0.1291,-0.129,-0.129,-0.1284,-0.1239,-0.1234,-0.1286,-0.1286,-0.1286,0,0,-0.2209,-0.2142,-0.2107,-0.2,-0.1945,-0.1881,-0.1865,-0.1799,-0.1751,-0.1702,-0.1621,-0.1573,-0.1493,-0.1412,-0.1373,-0.1371,-0.1265,-0.1286,-0.1287,-0.128,-0.1235,-0.123,-0.1226,-0.1284,-0.1284,-0.1284,0,0,-0.2176,-0.212,-0.2061,-0.2007,-0.1924,-0.1876,-0.1862,-0.1771,-0.1738,-0.1656,-0.1618,-0.156,-0.1443,-0.1387,-0.1344,-0.1292,-0.1266,-0.1271,-0.1265,-0.1222,-0.1218,-0.1214,-0.1195,-0.1189,-0.1266,-0.1266,-0.1266,0,-0.2187,-0.209,-0.2034,-0.197,-0.1924,-0.1878,-0.1818,-0.1767,-0.1666,-0.1635,-0.1635,-0.1487,-0.143,-0.1336,-0.1323,-0.1289,-0.1271,-0.1281,-0.1223,-0.1219,-0.1214,-0.1195,-0.1189,-0.1267,-0.1267,-0.1267,-0.1267,0,-0.2107,-0.2041,-0.2003,-0.1907,-0.1857,-0.1795,-0.173,-0.1685,-0.1654,-0.1606,-0.1523,-0.1453,-0.137,-0.1345,-0.1314,-0.1246,-0.1248,-0.1236,-0.1235,-0.1211,-0.1193,-0.1185,-0.1269,-0.1268,-0.1268,-0.1268,0,0,-0.2097,-0.1972,-0.1959,-0.1916,-0.1821,-0.1768,-0.1705,-0.1624,-0.1587,-0.152,-0.1464,-0.1367,-0.1355,-0.1306,-0.1268,-0.123,-0.1193,-0.1222,-0.122,-0.1219,-0.1114,-0.1124,-0.1116,-0.1176,-0.1174,-0.1173,-0.1121,0,-0.2053,-0.1937,-0.1885,-0.1792,-0.173,-0.1686,-0.163,-0.1566,-0.152,-0.146,-0.1409,-0.1341,-0.1331,-0.1301,-0.1262,-0.1206,-0.1171,-0.1209,-0.1123,-0.112,-0.1144,-0.1107,-0.1116,-0.1071,-0.1114,-0.1112,-0.1111,0,-0.1985,-0.1918,-0.1819,-0.1732,-0.1704,-0.1655,-0.1577,-0.1521,-0.1448,-0.1417,-0.1362,-0.1326,-0.1257,-0.1261,-0.1165,-0.1192,-0.1154,-0.1121,-0.1118,-0.1107,-0.1114,-0.1095,-0.1055,-0.1048,-0.1099,-0.11,-0.1101,0,-0.1988,-0.1872,-0.1798,-0.1762,-0.1659,-0.1626,-0.1581,-0.1509,-0.1464,-0.1396,-0.1366,-0.1291,-0.125,-0.1192,-0.1136,-0.1145,-0.1045,-0.1045,-0.1017,-0.1019,-0.0998,-0.1,-0.0951,-0.0974,-0.0974,-0.0974,-0.0974,0,-0.1943,-0.1884,-0.1799,-0.1753,-0.1686,-0.1627,-0.1562,-0.1514,-0.145,-0.1395,-0.1352,-0.13,-0.123,-0.117,-0.1125,-0.1052,-0.1034,-0.1007,-0.0996,-0.101,-0.1014,-0.0984,-0.0986,-0.0972,-0.0973,-0.0973,-0.0974,0,-0.1935,-0.1875,-0.1791,-0.1701,-0.1677,-0.1632,-0.1554,-0.1508,-0.146,-0.139,-0.1371,-0.1295,-0.1222,-0.1161,-0.1064,-0.1035,-0.0959,-0.0946,-0.0984,-0.0978,-0.0953,-0.0957,-0.0884,-0.0871,-0.0903,-0.0903,-0.0903,0,-0.191,-0.1864,-0.1769,-0.1729,-0.1685,-0.1621,-0.1575,-0.1515,-0.1469,-0.1382,-0.1347,-0.1271,-0.1206,-0.1091,-0.1028,-0.0954,-0.0939,-0.0918,-0.0927,-0.0944,-0.0938,-0.0942,-0.0937,-0.0918,-0.0917,-0.0917,-0.0917,0,-0.1873,-0.1845,-0.1781,-0.1706,-0.1653,-0.1591,-0.1528,-0.1498,-0.1426,-0.1377,-0.1302,-0.1252,-0.1154,-0.1079,-0.0998,-0.0952,-0.0923,-0.0915,-0.0905,-0.0919,-0.0943,-0.093,-0.0982,-0.0917,-0.0917,-0.0917,-0.0917,-0.0917,-0.1855,-0.1812,-0.1739,-0.1668,-0.1615,-0.1557,-0.151,-0.1456,-0.1393,-0.1309,-0.1277,-0.12,-0.1128,-0.1017,-0.097,-0.0909,-0.0906,-0.0891,-0.0887,-0.0884,-0.0886,-0.0953,-0.0894,-0.0894,-0.0894,-0.0894,-0.0894,0,-0.1815,-0.1766,-0.1702,-0.1616,-0.1561,-0.1539,-0.1468,-0.1423,-0.1356,-0.1291,-0.1229,-0.1143,-0.107,-0.1001,-0.0925,-0.0889,-0.0874,-0.0871,-0.0873,-0.0863,-0.0894,-0.091,-0.0885,-0.0885,-0.0885,-0.0885,-0.0885,-0.0885,-0.1788,-0.1714,-0.1679,-0.1578,-0.1529,-0.1454,-0.1415,-0.1362,-0.131,-0.1216,-0.1155,-0.1111,-0.1044,-0.0963,-0.0895,-0.0876,-0.085,-0.0851,-0.0829,-0.0859,-0.0861,-0.0862,-0.0877,-0.0846,-0.0846,-0.0803,-0.0803,-0.0802]},{"header":{"parameterUnit":"m.s-1","parameterCategory":1,"la1":30.2991,"la2":30.254,"lo1":-89.0895,"lo2":-89.0444,"dy":0.0017,"dx":0.0017,"nx":28,"ny":28,"refTime":"2025-05-16T03:00:00:Z","depth":0,"parameterNumber":3,"parameterNumberName":"V-component_of_WINDS"},"data":[0,0,0,0,0,0,0,0,0,0,0,0,0,0,0,0,0,0,0,0,0,0,0,0,0,0,0,0,0,0,0,0,0,0,0,0,0,0,0,0,0,0,0,0,0,0,0,0,0,0,0,0,0,0,0,0,0,0,5.2147,5.2148,0,5.2202,5.2203,5.2203,5.2158,5.2156,5.2154,5.2153,5.2201,5.2204,5.2207,0,0,0,0,0,0,0,0,0,0,0,0,0,5.1997,5.2,5.2147,5.2148,5.2149,5.2202,5.2203,5.2203,5.2158,5.2156,5.2154,5.2152,5.22,5.2204,5.2208,0,0,0,0,0,0,0,0,0,0,0,0,0,5.2058,5.2001,5.2147,5.2133,5.2132,5.2202,5.2203,5.2204,5.2159,5.2156,5.2153,5.2151,5.2199,5.2204,5.2208,5.2293,0,0,5.2222,5.2224,0,0,0,0,0,0,0,0,5.2054,5.2063,5.2134,5.2134,5.2133,5.2171,5.2167,5.2233,5.216,5.2148,5.2153,5.2149,5.2193,5.2198,5.2214,5.2295,5.2297,5.2223,5.2225,5.2227,5.2229,0,0,0,0,0,0,0,5.205,5.206,5.2169,5.2135,5.2135,5.2121,5.2127,5.218,5.2185,5.2149,5.2146,5.2154,5.2192,5.221,5.2215,5.2298,5.2222,5.2226,5.2229,5.2231,5.2451,5.2454,0,0,0,0,0,0,5.2048,5.2057,5.2167,5.217,5.2086,5.2126,5.2133,5.2161,5.2185,5.2186,5.2156,5.2151,5.2203,5.221,5.2216,5.2318,5.2227,5.2232,5.2234,5.2448,5.2452,5.2455,0,0,0,0,0,0,5.2045,5.2058,5.2165,5.2113,5.2126,5.2132,5.2164,5.2164,5.2182,5.219,5.219,5.2174,5.2201,5.221,5.2275,5.2319,5.2234,5.2238,5.2444,5.2449,5.2454,5.2521,0,0,0,0,0,0,5.2041,5.2058,5.2091,5.2114,5.2129,5.2224,5.2167,5.2167,5.219,5.2185,5.2207,5.2207,5.22,5.2268,5.2279,5.2323,5.2241,5.2441,5.2447,5.2452,5.2514,5.2527,5.2538,0,0,0,0,0,5.2036,5.2106,5.2093,5.2107,5.2171,5.2227,5.2235,5.2227,5.2194,5.2227,5.2233,5.2207,5.2312,5.2275,5.2287,5.2333,5.2438,5.2445,5.2452,5.2509,5.2524,5.2537,0,0,0,0,0,0,5.2085,5.2109,5.2095,5.2175,5.22,5.2219,5.2261,5.2243,5.2275,5.2268,5.2255,5.226,5.2329,5.2337,5.2296,5.2417,5.2369,5.2379,5.2409,5.2423,5.2435,5.2431,5.2245,0,0,0,0,0,5.2106,5.2152,5.2169,5.2238,5.2251,5.2254,5.2278,5.227,5.2294,5.2303,5.2313,5.2335,5.2374,5.2399,5.2434,5.2515,5.2519,5.2553,5.2565,5.2574,5.2583,5.2627,5.2642,5.2478,5.2478,5.2478,0,0,5.2148,5.2167,5.2196,5.2248,5.2266,5.2312,5.2263,5.2313,5.2346,5.231,5.2373,5.2381,5.2404,5.2478,5.2511,5.2487,5.2629,5.2583,5.259,5.2594,5.2635,5.2651,5.2665,5.2483,5.2482,5.2481,0,0,5.2249,5.2268,5.2328,5.2348,5.2377,5.2379,5.2393,5.2416,5.2421,5.2485,5.2459,5.2497,5.2563,5.2581,5.2599,5.2708,5.2685,5.272,5.278,5.2823,5.2836,5.2848,5.2887,5.2901,5.2728,5.2728,5.2729,0,5.2297,5.2368,5.236,5.2414,5.2437,5.2409,5.2469,5.2488,5.2526,5.2542,5.2516,5.2599,5.2613,5.2691,5.2718,5.2733,5.2748,5.2717,5.2836,5.2847,5.2857,5.2895,5.291,5.2733,5.2732,5.2732,5.2731,0,5.2425,5.2475,5.2519,5.2561,5.2589,5.2645,5.2645,5.2674,5.2664,5.2668,5.2732,5.2748,5.2787,5.2805,5.2794,5.2881,5.2866,5.2838,5.279,5.2877,5.2912,5.2926,5.2738,5.2737,5.2736,5.2735,0,0,5.2558,5.2597,5.2613,5.2632,5.2663,5.2699,5.2754,5.2795,5.282,5.2847,5.2892,5.2949,5.2924,5.2944,5.2935,5.2973,5.3059,5.294,5.294,5.2962,5.3157,5.3179,5.3195,5.3044,5.3047,5.3049,5.3155,0,5.2661,5.2759,5.2755,5.2846,5.2891,5.2865,5.2913,5.2936,5.2941,5.2978,5.2982,5.3024,5.2987,5.2999,5.3036,5.3041,5.3098,5.3033,5.3084,5.3086,5.308,5.3213,5.3236,5.3336,5.3169,5.3171,5.3173,0,5.2794,5.283,5.2926,5.2952,5.297,5.3013,5.3051,5.3087,5.3112,5.3113,5.3137,5.3122,5.3175,5.3126,5.3199,5.3155,5.3176,5.3181,5.3185,5.319,5.3135,5.3222,5.3367,5.3382,5.3194,5.3192,5.3191,0,5.2882,5.2954,5.3021,5.3038,5.3069,5.31,5.3114,5.3136,5.3161,5.3193,5.3209,5.3245,5.3265,5.3293,5.3288,5.3253,5.3362,5.3312,5.3363,5.3364,5.3388,5.3386,5.3539,5.34,5.34,5.34,5.34,0,5.2998,5.3058,5.3062,5.3103,5.3169,5.3163,5.3228,5.3237,5.3258,5.3299,5.3278,5.3317,5.3307,5.3345,5.3341,5.3402,5.3411,5.3412,5.3411,5.3415,5.3415,5.3428,5.3421,5.3404,5.3403,5.3402,5.3401,0,5.3108,5.3113,5.3185,5.3209,5.3217,5.3264,5.3284,5.3322,5.3326,5.3379,5.3391,5.3396,5.344,5.3438,5.3486,5.3483,5.3559,5.3549,5.3552,5.355,5.3601,5.3597,5.3767,5.379,5.3637,5.3638,5.3639,0,5.3181,5.3228,5.3258,5.3286,5.3303,5.3348,5.3374,5.3369,5.3397,5.343,5.3464,5.3507,5.354,5.3611,5.3618,5.3655,5.3645,5.3703,5.3651,5.3654,5.3647,5.3645,5.3649,5.3713,5.3715,5.3716,5.3717,0,5.3312,5.3313,5.3354,5.3396,5.3429,5.3461,5.349,5.3513,5.3511,5.3543,5.3589,5.3616,5.3667,5.3709,5.3745,5.3756,5.3736,5.3734,5.3748,5.3753,5.3753,5.3754,5.358,5.373,5.3729,5.3728,5.3727,5.3727,5.3407,5.3447,5.3476,5.3522,5.3544,5.3572,5.361,5.362,5.3659,5.3703,5.3696,5.3748,5.3771,5.3818,5.3833,5.3872,5.3851,5.3871,5.3876,5.3881,5.3888,5.3747,5.3878,5.3878,5.3878,5.3877,5.3877,0,5.3537,5.3555,5.3597,5.3641,5.3677,5.3658,5.3689,5.372,5.3767,5.3792,5.3827,5.3879,5.392,5.3931,5.397,5.3999,5.3991,5.401,5.4008,5.4011,5.3904,5.3888,5.4016,5.4016,5.4016,5.4016,5.4016,5.4016,5.3609,5.3677,5.3681,5.3759,5.3776,5.3829,5.3849,5.3874,5.3894,5.3956,5.3991,5.3998,5.4017,5.4058,5.4094,5.4096,5.4111,5.4134,5.4132,5.4032,5.4018,5.4005,5.399,5.4137,5.4137,5.4236,5.4237,5.4238]}]]